Location: Baia Mare
(47.6567°N, 23.5850°E)
Time: 20:53:07
(UTC+02:00)

ISS - Pass Details

Date: 22 September 2018
Orbit: 401 x 408 km, 51.6° (Epoch: 16 November)

Event Time Altitude Azimuth Distance (km) Brightness Sun altitude
Rises 21:14:05 0° 225° (SW) 2,335 0.3 -18.9°
Reaches altitude 10° 21:16:14 10° 218° (SW) 1,476 -0.8 -19.3°
Enters shadow 21:18:02 27° 199° (SSW) 835 -2.3 -19.5°
